GW0870 Weather Reports


time (UTC)temp
F
wind
direction
speed
knots
gust
knots
rain 1hr
in
rain 24hr
in
rain mn
in
humidity
%
barometer
mb
20260901040059 74 0 0.0 0.0 0.00 0.00 0.00 93 1019.7
20260901034601 74 0 0.0 0.0 0.00 0.00 0.00 92 1019.6
20260901033051 74 0 0.0 0.0 0.00 0.00 0.00 92 1019.6
20260901031558 74 0 0.0 0.0 0.00 0.00 0.00 92 1019.6
20260901030055 75 0 0.0 0.9 0.00 0.00 0.00 92 1019.6
20260901024557 74 0 0.0 0.0 0.00 0.00 0.00 91 1019.6
20260901023050 75 0 0.0 0.0 0.00 0.00 0.00 92 1019.8
20260901021616 75 0 0.0 0.0 0.00 0.00 0.00 91 1019.7
20260901020111 75 0 0.0 0.0 0.00 0.00 0.00 91 1019.6
20260901014557 76 0 0.0 0.0 0.00 0.00 0.00 90 1019.3
20260901013106 76 0 0.0 0.0 0.00 0.00 0.00 90 1019.2
20260901011556 77 0 0.0 0.0 0.00 0.00 0.00 89 1019.1
20260901010101 77 0 0.0 0.0 0.00 0.00 0.00 88 1018.8
20260901004603 78 0 0.0 0.0 0.00 0.00 0.00 87 1018.7
20260901003054 79 0 0.0 0.0 0.00 0.00 0.00 86 1018.6
20260901001558 80 0 0.0 0.0 0.00 0.00 0.00 85 1018.5
20260901000059 81 0 0.0 0.0 0.00 0.00 0.00 82 1018.3
20260831234603 82 0 0.0 0.0 0.00 0.00 0.00 81 1018.2
20260831233052 83 0 0.0 0.0 0.00 0.00 0.00 79 1018.3
20260831231548 85 0 0.0 0.0 0.00 0.00 0.00 76 1018.2
20260831230057 86 0 0.0 0.0 0.00 0.00 0.00 73 1018.4
20260831224554 87 0 0.0 0.0 0.00 0.00 0.00 69 1018.5
20260831223055 90 0 0.0 0.0 0.00 0.00 0.00 63 1018.6
20260831221554 92 0 0.0 0.0 0.00 0.00 0.00 54 1018.6
20260831220110 93 0 0.0 0.9 0.00 0.00 0.00 55 1018.6
20260831214556 95 147 0.0 1.7 0.00 0.00 0.00 53 1018.6
20260831213054 95 0 0.0 1.7 0.00 0.00 0.00 48 1018.8
20260831211605 94 0 0.9 2.6 0.00 0.00 0.00 49 1018.7
20260831210053 94 50 0.0 0.9 0.00 0.00 0.00 53 1018.7
20260831204558 94 0 0.0 1.7 0.00 0.00 0.00 51 1018.7
20260831203053 93 267 0.9 3.5 0.00 0.00 0.00 50 1018.9
20260831201556 93 192 0.9 2.6 0.00 0.00 0.00 48 1019.1
20260831200056 91 0 0.0 2.6 0.00 0.00 0.00 51 1019.2
20260831194629 91 0 0.0 0.9 0.00 0.00 0.00 54 1019.5
20260831193102 94 0 0.0 0.9 0.00 0.00 0.00 52 1019.6
20260831191558 93 0 0.0 1.7 0.00 0.00 0.00 54 1019.5
20260831190113 93 223 0.0 2.6 0.00 0.00 0.00 52 1019.6
20260831184613 94 140 0.9 2.6 0.00 0.00 0.00 51 1019.8
20260831183107 93 47 0.9 4.3 0.00 0.00 0.00 53 1020.0
20260831181556 93 0 0.0 3.5 0.00 0.00 0.00 52 1020.2
20260831180054 91 110 0.9 2.6 0.00 0.00 0.00 57 1020.4
20260831174605 92 0 0.0 4.3 0.00 0.00 0.00 61 1020.4
20260831173105 91 0 0.0 2.6 0.00 0.00 0.00 60 1020.5
20260831171555 90 0 0.0 3.5 0.00 0.00 0.00 59 1020.4
20260831170058 91 220 0.0 1.7 0.00 0.00 0.00 63 1020.7
20260831164554 90 130 0.0 1.7 0.00 0.00 0.00 63 1020.7
20260831163055 90 306 0.0 2.6 0.00 0.00 0.00 64 1020.8
20260831161606 87 281 0.0 1.7 0.00 0.00 0.00 67 1020.9
20260831160057 87 109 0.9 2.6 0.00 0.00 0.00 66 1020.9
20260831154621 86 0 0.0 2.6 0.00 0.00 0.00 69 1021.0
20260831153054 85 0 1.7 4.3 0.00 0.00 0.00 74 1021.0
20260831151600 85 0 0.0 2.6 0.00 0.00 0.00 72 1021.2
20260831150058 85 0 0.0 1.7 0.00 0.00 0.00 73 1021.3
20260831144609 83 159 0.0 1.7 0.00 0.00 0.00 76 1021.3
20260831143053 82 219 0.0 1.7 0.00 0.00 0.00 79 1021.3
20260831141553 81 0 0.9 3.5 0.00 0.00 0.00 81 1021.1
20260831140057 81 254 0.0 2.6 0.00 0.00 0.00 83 1021.1
20260831134600 79 0 0.9 4.3 0.00 0.00 0.00 85 1021.1
20260831133107 77 209 0.9 3.5 0.00 0.00 0.00 89 1021.0
20260831131600 74 214 0.9 2.6 0.00 0.00 0.00 94 1021.0
20260831130116 72 0 0.0 0.9 0.00 0.00 0.00 96 1021.0
20260831124555 71 0 0.0 0.0 0.00 0.00 0.00 97 1021.0
20260831123103 69 0 0.0 0.0 0.00 0.00 0.00 96 1021.0
20260831121601 68 0 0.0 0.9 0.00 0.00 0.00 96 1021.1
20260831120057 67 0 0.0 0.0 0.00 0.00 0.00 96 1021.0
20260831114556 66 0 0.0 0.0 0.00 0.00 0.00 95 1021.1
20260831113052 66 0 0.0 0.0 0.00 0.00 0.00 95 1021.0
20260831111612 66 0 0.0 0.0 0.00 0.00 0.00 95 1021.0
20260831110134 66 0 0.0 0.0 0.00 0.00 0.00 95 1020.9
20260831104551 66 0 0.0 0.0 0.00 0.00 0.00 95 1021.0
20260831103059 66 0 0.0 0.0 0.00 0.00 0.00 95 1020.8
20260831101552 66 0 0.0 0.0 0.00 0.00 0.00 95 1020.7
20260831100103 66 0 0.0 0.0 0.00 0.00 0.00 95 1020.7
20260831094624 66 0 0.0 0.0 0.00 0.00 0.00 95 1020.6
20260831093054 66 0 0.0 0.0 0.00 0.00 0.00 95 1020.6
20260831091555 67 0 0.0 0.0 0.00 0.00 0.00 95 1020.5
20260831090054 67 0 0.0 0.0 0.00 0.00 0.00 95 1020.4
20260831084603 67 0 0.0 0.0 0.00 0.00 0.00 95 1020.5
20260831083057 67 0 0.0 0.0 0.00 0.00 0.00 95 1020.4
20260831081632 67 0 0.0 0.0 0.00 0.00 0.00 94 1020.4
20260831080100 67 0 0.0 0.0 0.00 0.00 0.00 94 1020.3
20260831074602 67 0 0.0 0.0 0.00 0.00 0.00 94 1020.3
20260831073156 68 0 0.0 0.0 0.00 0.00 0.00 94 1020.4
20260831071553 67 0 0.0 0.0 0.00 0.00 0.00 94 1020.5
20260831070052 68 0 0.0 0.0 0.00 0.00 0.00 94 1020.5
20260831064602 68 0 0.0 0.0 0.00 0.00 0.00 94 1020.6
20260831063056 68 0 0.0 0.0 0.00 0.00 0.00 94 1020.7
20260831061554 68 0 0.0 0.0 0.00 0.00 0.00 94 1020.7
20260831060115 69 0 0.0 0.0 0.00 0.00 0.00 94 1020.8
20260831054554 69 0 0.0 0.0 0.00 0.00 0.00 94 1020.6
20260831053052 69 0 0.0 0.0 0.00 0.00 0.00 94 1020.6
20260831051555 69 0 0.0 0.0 0.00 0.00 0.00 94 1020.7
20260831050137 69 0 0.0 0.0 0.00 0.00 0.00 94 1020.6
20260831044551 69 0 0.0 0.0 0.00 0.00 0.00 94 1020.6
20260831043100 69 0 0.0 0.0 0.00 0.00 0.00 93 1020.7
20260831041555 70 0 0.0 0.0 0.00 0.00 0.00 93 1020.8